Stations météo

réclame
Mon MeteoGroup
Bilbao/Aeropuerto, Espagne (8025): Température de l'air & dewpoint: 16.06.2018 19:00:00 - 22.06.2018 19:00:00 (CEST)Bilbao/Aeropuerto, Espagne (8025): Vitesse du vent: 16.06.2018 19:00:00 - 22.06.2018 19:00:00 (CEST)Bilbao/Aeropuerto, Espagne (8025): Direction du vent: 16.06.2018 19:00:00 - 22.06.2018 19:00:00 (CEST)Bilbao/Aeropuerto, Espagne (8025): reduced air pressure: 16.06.2018 19:00:00 - 22.06.2018 19:00:00 (CEST)Bilbao/Aeropuerto, Espagne (8025): visibility: 16.06.2018 19:00:00 - 22.06.2018 19:00:00 (CEST)
Date & Time tt [°C] td [°C] ff [km/h] ff [knt] dd ppp [hPa] vv [km]
22.06.2018 19:00:00 - - - - - - -
22.06.2018 18:00:00 22,4 17,0 13 7 NNW 1022,0 -
22.06.2018 17:00:00 22,5 17,6 13 7 N 1021,9 15
22.06.2018 16:00:00 22,6 17,7 15 8 N 1022,3 -
22.06.2018 15:00:00 23,0 18,2 13 7 NNW 1022,3 -
22.06.2018 14:00:00 22,4 18,2 11 6 N 1022,6 12
22.06.2018 13:00:00 21,3 18,1 11 6 NW 1022,9 -
22.06.2018 12:00:00 21,0 18,2 11 6 NW 1022,8 -
22.06.2018 11:00:00 20,6 18,0 13 7 NNW 1022,9 8
22.06.2018 10:00:00 20,1 17,5 15 8 NW 1022,8 -
22.06.2018 09:00:00 19,7 17,8 15 8 NW 1022,7 -
22.06.2018 08:00:00 19,4 17,9 11 6 NW 1022,4 9
22.06.2018 07:00:00 19,0 17,7 9 5 NNW 1022,2 -
22.06.2018 06:00:00 19,3 17,8 11 6 NNW 1022,2 -
22.06.2018 05:00:00 19,3 17,6 13 7 NNW 1022,3 8
22.06.2018 04:00:00 19,5 17,8 13 7 NNW 1022,4 -
22.06.2018 03:00:00 19,5 18,0 13 7 NW 1022,7 -
22.06.2018 02:00:00 19,5 18,2 9 5 NW 1022,8 -
22.06.2018 01:00:00 19,7 18,3 9 5 NW 1023,3 -
22.06.2018 00:00:00 19,7 18,4 9 5 NW 1023,3 -
21.06.2018 23:00:00 19,8 18,6 11 6 NW 1023,0 10
21.06.2018 22:00:00 19,9 18,7 13 7 NW 1022,3 -
21.06.2018 21:00:00 20,4 18,5 15 8 NW 1022,1 -
21.06.2018 20:00:00 21,5 18,6 13 7 N 1021,9 12
21.06.2018 19:00:00 21,3 18,3 13 7 NW 1021,4 -
21.06.2018 18:00:00 22,2 18,6 13 7 NNW 1021,4 -
21.06.2018 17:00:00 22,2 18,6 15 8 NNW 1021,6 15
21.06.2018 16:00:00 22,1 18,7 16 9 NW 1021,5 -
21.06.2018 15:00:00 22,5 18,7 16 9 NW 1021,5 -
21.06.2018 14:00:00 22,5 18,9 15 8 NNW 1021,5 12
21.06.2018 13:00:00 22,2 18,2 11 6 NW 1021,5 -
21.06.2018 12:00:00 21,6 18,5 9 5 NNW 1021,5 -
21.06.2018 11:00:00 21,2 18,0 4 2 NW 1020,9 9
21.06.2018 10:00:00 20,7 17,7 5 3 E 1020,7 -
21.06.2018 09:00:00 20,2 18,0 8 4 SE 1020,5 -
21.06.2018 08:00:00 19,8 18,0 5 3 ESE 1020,7 7
21.06.2018 07:00:00 19,5 17,8 4 2 SE 1020,8 -
21.06.2018 06:00:00 19,5 17,6 4 2 W 1020,6 -
21.06.2018 05:00:00 19,5 17,5 5 3 NNW 1020,5 15
21.06.2018 04:00:00 19,4 17,5 5 3 NNW 1020,6 -
21.06.2018 03:00:00 19,4 17,7 5 3 NNW 1020,8 -
21.06.2018 02:00:00 19,5 17,6 8 4 NW 1020,9 -
21.06.2018 01:00:00 19,5 17,8 11 6 NNW 1021,2 -
21.06.2018 00:00:00 19,8 18,1 11 6 NNW 1021,0 -
20.06.2018 23:00:00 20,0 18,0 9 5 NNW 1020,4 10
20.06.2018 22:00:00 20,0 18,0 9 5 NNW 1019,6 -
20.06.2018 21:00:00 20,3 17,9 8 4 NNW 1018,9 -
20.06.2018 20:00:00 20,9 18,1 13 7 NNW 1018,8 10
20.06.2018 19:00:00 21,6 18,4 15 8 NW 1018,5 -
20.06.2018 18:00:00 22,2 18,5 18 10 NW 1018,7 -
20.06.2018 17:00:00 23,8 19,2 18 10 NW 1018,4 10
20.06.2018 16:00:00 24,3 19,5 18 10 WNW 1018,3 -
20.06.2018 15:00:00 24,4 19,5 18 10 WNW 1018,3 -
20.06.2018 14:00:00 24,3 19,1 4 2 W 1018,3 15
20.06.2018 13:00:00 24,3 19,7 15 8 WNW 1018,5 -
20.06.2018 12:00:00 24,2 19,4 13 7 WNW 1018,5 -
20.06.2018 11:00:00 22,7 18,0 4 2 W 1018,6 15
20.06.2018 10:00:00 21,0 17,5 5 3 WNW 1018,9 -
20.06.2018 09:00:00 20,2 17,2 0 0 N 1018,9 -
20.06.2018 08:00:00 17,4 15,7 5 3 ESE 1018,7 15
20.06.2018 07:00:00 15,1 14,5 8 4 E 1018,5 -
20.06.2018 06:00:00 14,8 14,2 8 4 E 1018,4 -
20.06.2018 05:00:00 15,0 14,2 8 4 E 1018,7 12
20.06.2018 04:00:00 15,3 14,5 8 4 E 1018,9 -
20.06.2018 03:00:00 15,8 14,7 8 4 E 1019,4 -
20.06.2018 02:00:00 16,4 14,9 5 3 E 1020,0 -
20.06.2018 01:00:00 17,4 15,3 5 3 E 1020,4 -
20.06.2018 00:00:00 19,2 15,9 4 2 E 1020,9 -
19.06.2018 23:00:00 19,4 15,7 5 3 E 1021,0 15
19.06.2018 22:00:00 19,4 16,1 8 4 ESE 1020,7 -
19.06.2018 21:00:00 19,9 15,9 13 7 ESE 1020,8 -
19.06.2018 20:00:00 21,1 16,6 13 7 E 1020,9 20
19.06.2018 19:00:00 21,2 16,7 11 6 E 1021,1 -
19.06.2018 18:00:00 21,2 16,1 15 8 E 1021,8 -
19.06.2018 17:00:00 21,3 16,4 13 7 E 1022,3 20
19.06.2018 16:00:00 20,8 16,0 16 9 E 1022,8 -
19.06.2018 15:00:00 20,2 16,0 11 6 E 1023,4 -
19.06.2018 14:00:00 19,8 16,2 9 5 E 1023,8 15
19.06.2018 13:00:00 19,4 16,7 8 4 E 1024,3 -
19.06.2018 12:00:00 18,3 16,4 2 1 NW 1024,6 -
19.06.2018 11:00:00 17,4 15,7 0 0 N 1025,0 8
19.06.2018 10:00:00 16,8 15,8 5 3 WNW 1025,6 -
19.06.2018 09:00:00 16,2 15,2 2 1 WSW 1025,8 -
19.06.2018 08:00:00 16,4 15,4 2 1 ENE 1025,9 8
19.06.2018 07:00:00 16,0 15,0 0 0 N 1025,9 -
19.06.2018 06:00:00 15,9 14,9 4 2 WNW 1025,9 -
19.06.2018 05:00:00 15,9 14,8 5 3 WNW 1026,1 15
19.06.2018 04:00:00 16,1 15,1 0 0 N 1026,2 -
19.06.2018 03:00:00 16,4 15,1 5 3 NE 1026,4 -
19.06.2018 02:00:00 16,6 15,5 4 2 ENE 1026,8 -
19.06.2018 01:00:00 17,0 15,7 5 3 ESE 1027,0 -
19.06.2018 00:00:00 17,1 15,8 0 0 N 1027,5 -
18.06.2018 23:00:00 17,6 15,6 5 3 NNW 1027,3 12
18.06.2018 22:00:00 18,0 15,6 5 3 N 1027,1 -
18.06.2018 21:00:00 18,1 15,3 5 3 WNW 1027,1 -
18.06.2018 20:00:00 18,4 15,4 11 6 NNW 1027,0 12
18.06.2018 19:00:00 18,5 15,7 13 7 NNW 1027,3 -
18.06.2018 18:00:00 18,4 16,5 18 10 N 1027,2 -
18.06.2018 17:00:00 19,5 16,7 15 8 NNW 1027,3 15
18.06.2018 16:00:00 20,3 16,6 18 10 NW 1027,4 -
18.06.2018 15:00:00 21,1 16,1 16 9 N 1027,2 -
18.06.2018 14:00:00 20,5 16,3 13 7 NNW 1027,4 10
18.06.2018 13:00:00 19,4 16,5 13 7 NNW 1027,7 -
18.06.2018 12:00:00 20,0 14,8 15 8 NW 1027,5 -
18.06.2018 11:00:00 19,9 15,4 4 2 WNW 1027,5 20
18.06.2018 10:00:00 18,1 14,0 0 0 N 1027,8 -
18.06.2018 09:00:00 16,4 13,7 4 2 ESE 1027,8 -
18.06.2018 08:00:00 15,0 13,0 8 4 E 1027,3 15
18.06.2018 07:00:00 14,6 13,0 5 3 ESE 1027,1 -
18.06.2018 06:00:00 14,2 12,8 8 4 E 1027,0 -
18.06.2018 05:00:00 13,7 12,6 5 3 ESE 1026,9 12
18.06.2018 04:00:00 13,0 12,1 5 3 ESE 1027,1 -
18.06.2018 03:00:00 13,0 11,7 8 4 E 1027,1 -
18.06.2018 02:00:00 13,5 12,2 8 4 SE 1027,2 -
18.06.2018 01:00:00 14,3 12,5 5 3 E 1027,3 -
18.06.2018 00:00:00 15,1 12,8 8 4 E 1027,4 -
17.06.2018 23:00:00 16,3 12,8 0 0 N 1027,1 20
17.06.2018 22:00:00 17,5 12,7 8 4 N 1026,9 -
17.06.2018 21:00:00 19,3 12,7 9 5 N 1026,4 -
17.06.2018 20:00:00 20,4 13,5 9 5 NW 1026,1 50
17.06.2018 19:00:00 20,8 13,9 13 7 N 1025,9 -
17.06.2018 18:00:00 21,4 13,6 15 8 N 1025,7 -
17.06.2018 17:00:00 21,4 13,9 13 7 NNW 1025,5 40
17.06.2018 16:00:00 21,9 15,0 15 8 NW 1025,3 -
17.06.2018 15:00:00 21,6 14,2 13 7 NW 1025,4 -
17.06.2018 14:00:00 21,1 14,7 13 7 N 1025,4 25
17.06.2018 13:00:00 20,0 13,5 11 6 NNW 1025,6 -
17.06.2018 12:00:00 20,4 14,7 8 4 NNW 1025,6 -
17.06.2018 11:00:00 19,1 14,0 8 4 WNW 1025,6 20
17.06.2018 10:00:00 18,2 13,8 2 1 NW 1025,6 -
17.06.2018 09:00:00 16,2 14,7 5 3 ESE 1025,3 -
17.06.2018 08:00:00 15,4 14,4 8 4 ESE 1024,8 15
17.06.2018 07:00:00 15,1 13,8 5 3 E 1024,2 -
17.06.2018 06:00:00 14,9 13,8 8 4 ESE 1023,8 -
17.06.2018 05:00:00 15,0 13,5 8 4 ENE 1023,7 12
17.06.2018 04:00:00 14,7 13,4 5 3 E 1023,9 -
17.06.2018 03:00:00 14,4 13,3 4 2 ESE 1023,7 -
17.06.2018 02:00:00 14,2 12,9 8 4 SE 1023,9 -
17.06.2018 01:00:00 15,1 13,3 0 0 N 1023,9 -
17.06.2018 00:00:00 15,9 13,4 0 0 N 1024,2 -
16.06.2018 23:00:00 17,1 13,2 8 4 N 1023,8 30
16.06.2018 22:00:00 17,3 13,1 8 4 N 1023,0 -
16.06.2018 21:00:00 18,0 13,5 9 5 N 1022,6 -
16.06.2018 20:00:00 18,6 13,5 15 8 N 1022,6 30
16.06.2018 19:00:00 19,7 14,1 16 9 N 1021,7 -

tt = Température de l'air
td = dewpoint
ff = Vitesse du vent
dd = Direction du vent
ppp = reduced air pressure
vv = visibility

stations d'obs. à proximité